This is the latest recevied weather packets stored in our database for station/object EA1IDU-12. If no packets are shown the sender has not sent any weather packets the latest 10 day(s).
| Time | Temp. | Humidity | Pressure | Rain* | Wind** | Luminosity | Snow |
|---|---|---|---|---|---|---|---|
| 1788444606 | 37.78° C | 15% | 1032.2 hPa | - | - | - | - |
| 1788443706 | 37.78° C | 16% | 1032.3 hPa | - | - | - | - |
| 1788442806 | 38.33° C | 16% | 1032.3 hPa | - | - | - | - |
| 1788441906 | 38.33° C | 17% | 1032.3 hPa | - | - | - | - |
| 1788441006 | 38.33° C | 17% | 1032.5 hPa | - | - | - | - |
| 1788440105 | 37.78° C | 18% | 1032.5 hPa | - | - | - | - |
| 1788439205 | 39.44° C | 19% | 1032.5 hPa | - | - | - | - |
| 1788438305 | 37.78° C | 21% | 1032.6 hPa | - | - | - | - |
| 1788437405 | 37.22° C | 22% | 1032.6 hPa | - | - | - | - |
| 1788436505 | 36.67° C | 23% | 1032.8 hPa | - | - | - | - |
| 1788435605 | 36.11° C | 25% | 1033 hPa | - | - | - | - |
| 1788434704 | 36.11° C | 26% | 1033.2 hPa | - | - | - | - |
| 1788433804 | 36.11° C | 28% | 1033.3 hPa | - | - | - | - |
| 1788432904 | 36.11° C | 30% | 1033.6 hPa | - | - | - | - |
| 1788432004 | 35° C | 31% | 1033.7 hPa | - | - | - | - |
| 1788431104 | 33.33° C | 33% | 1033.8 hPa | - | - | - | - |
| 1788430204 | 31.67° C | 35% | 1033.8 hPa | - | - | - | - |
| 1788429303 | 30.56° C | 37% | 1033.8 hPa | - | - | - | - |
| 1788428403 | 29.44° C | 41% | 1033.9 hPa | - | - | - | - |
| 1788427503 | 28.89° C | 45% | 1034 hPa | - | - | - | - |
| 1788426603 | 27.78° C | 48% | 1034 hPa | - | - | - | - |
| 1788425703 | 26.67° C | 50% | 1034 hPa | - | - | - | - |
| 1788424803 | 26.11° C | 52% | 1034 hPa | - | - | - | - |
| 1788423903 | 25.56° C | 53% | 1034.1 hPa | - | - | - | - |
| 1788423002 | 25° C | 54% | 1034 hPa | - | - | - | - |
* Rain since midnight (hover to see other rain measurements)
** Current wind speed in m/s (hover to see current wind gust speed)